Theta_e
305 306 307 307 305 307 309 309 309 308 308 311 310 310 309 309 308 307 308 308 308 309 310 309 309 311 313 312 312 313 316 317 324 337 342 340 340 341 338 335 334 332 334 336
304 307 307 307 307 307 308 309 310 310 311 310 309 310 309 309 308 308 308 308 308 307 306 308 311 313 314 314 313 314 314 314 317 327 338 340 340 340 341 338 337 338 338 338
306 307 307 308 308 309 309 310 313 312 311 309 309 307 308 309 308 308 307 307 306 305 308 312 313 313 313 313 314 315 315 315 314 317 332 341 341 341 341 341 341 340 340 340
306 306 307 307 308 310 311 312 311 311 309 308 309 309 308 308 308 307 306 304 307 311 312 312 312 311 311 312 313 314 316 316 316 316 329 340 341 341 341 341 341 341 342 342
307 307 307 307 309 311 309 311 310 311 310 309 309 309 307 306 307 306 306 309 311 311 311 311 310 310 311 311 312 314 317 317 317 317 323 339 341 341 341 341 341 342 341 340
305 305 307 308 311 310 309 309 305 305 305 309 308 308 307 306 308 308 309 311 312 311 310 309 309 310 310 311 312 315 316 316 317 317 319 334 341 341 340 341 341 341 340 340
306 306 311 310 308 306 305 304 306 306 307 311 307 308 308 308 308 308 311 312 311 310 309 308 309 310 311 312 313 315 316 314 316 318 319 325 340 341 340 340 340 339 337 336
306 307 310 311 308 307 307 305 306 310 312 306 308 309 308 306 307 312 313 312 311 309 309 310 310 310 311 312 313 315 315 313 314 318 320 322 328 340 340 339 339 337 334 331
309 309 308 308 308 306 306 308 305 307 307 308 307 307 306 307 308 312 312 311 309 310 311 310 310 311 313 314 314 314 315 314 314 317 321 323 327 336 338 338 339 339 332 332
307 311 309 309 308 308 306 306 309 304 313 313 309 308 308 307 307 308 311 310 309 310 310 310 311 312 314 316 315 314 315 315 315 317 321 324 328 334 336 336 338 336 332 336
308 308 310 309 308 306 307 309 309 305 305 307 312 308 307 309 310 309 310 309 309 310 310 311 311 313 315 316 317 317 318 318 318 322 320 324 330 333 334 335 337 333 333 338
309 307 311 310 308 307 306 307 308 307 309 310 312 312 308 307 309 311 310 311 310 310 311 311 312 314 316 316 316 316 318 325 328 330 323 324 329 332 334 334 334 332 336 340
309 308 311 308 306 306 310 311 309 307 307 313 315 311 309 310 308 309 310 310 312 312 312 312 311 311 315 316 315 314 316 320 327 330 324 324 329 333 334 334 334 334 338 341
311 306 310 310 307 305 309 310 309 309 315 312 312 311 311 310 310 309 310 311 310 312 313 313 313 313 316 315 313 313 316 318 327 333 325 327 332 333 334 334 335 337 339 342
310 311 309 310 310 311 311 312 312 313 313 315 313 313 311 311 311 310 311 310 312 312 312 313 315 315 314 313 312 313 316 318 328 336 333 331 333 335 336 338 339 340 341 343
305 310 309 311 311 312 313 313 313 313 313 313 313 313 311 310 309 309 309 311 312 312 312 315 313 313 312 312 312 314 315 320 329 340 339 338 339 339 340 341 341 342 343 343
308 310 312 311 310 312 312 312 311 311 311 311 313 311 310 311 311 310 309 310 311 311 313 311 311 312 311 312 312 313 315 321 329 340 341 341 341 341 342 342 342 341 340 341
307 308 310 312 311 313 309 312 313 312 312 311 311 312 310 310 310 309 308 309 310 310 311 310 310 310 310 311 312 313 315 326 328 334 338 340 341 341 341 341 341 339 339 339
307 308 313 315 313 311 309 312 314 313 311 310 310 311 311 309 309 310 309 309 309 309 310 310 309 309 309 310 311 312 316 327 327 327 338 339 339 338 339 338 336 336 336 338
310 309 312 317 312 310 307 309 310 310 312 310 308 309 310 310 314 313 310 309 310 309 309 309 309 309 309 310 310 312 318 327 326 326 338 337 337 336 335 334 333 335 338 337
315 313 314 314 315 311 309 311 309 315 309 308 310 311 312 313 312 311 309 309 309 308 308 308 309 309 309 309 310 314 319 327 325 327 327 336 335 333 332 332 334 334 334 333
316 315 315 314 314 314 312 311 313 308 308 311 311 312 313 311 310 310 309 308 308 308 308 308 308 308 309 309 311 315 325 325 325 324 328 334 331 331 331 332 330 331 330 327
310 313 315 314 309 309 308 310 308 308 310 310 313 312 311 310 309 308 308 308 307 307 307 308 308 309 310 310 312 316 323 326 325 325 330 332 331 331 331 329 328 328 328 325
308 308 307 306 308 307 306 307 307 308 309 310 309 307 305 305 305 306 306 307 307 307 309 309 309 309 310 311 313 316 321 326 325 323 332 331 329 329 329 329 329 328 326 325
307 305 305 305 306 307 308 309 309 309 309 307 305 304 304 306 306 307 306 308 308 309 309 310 310 310 311 312 314 315 322 326 325 322 330 331 329 328 327 327 328 328 329 329
306 307 310 312 309 309 310 311 310 310 308 305 304 305 305 306 306 306 306 307 307 308 309 310 310 311 312 313 314 319 324 324 325 325 328 330 327 324 322 322 325 328 329 329
Wind_Speed
3 4 2 6 7 2 2 2 3 4 3 5 6 10 7 6 5 8 8 7 8 7 5 8 12 16 21 21 23 22 22 17 22 23 24 29 33 40 42 41 42 37 36 31
5 2 5 4 2 3 3 1 2 5 6 6 10 20 11 6 6 6 6 7 8 7 9 6 12 17 21 23 23 24 24 24 21 24 30 24 22 30 40 39 40 40 34 33
4 4 2 3 1 3 2 3 2 4 5 5 7 10 3 1 3 4 5 5 6 6 8 9 10 17 23 24 27 26 25 25 25 25 28 27 24 17 19 33 38 40 33 33
4 3 2 2 2 3 1 4 2 2 4 2 4 7 5 5 4 3 6 5 5 7 7 6 12 15 22 25 29 30 30 28 27 25 24 30 28 23 28 31 37 36 32 30
5 3 1 2 2 2 4 1 3 2 2 3 4 2 5 5 6 6 6 7 7 7 6 9 12 21 28 29 30 32 32 32 29 25 26 30 30 28 29 29 29 28 25 29
6 2 1 2 3 3 3 3 5 4 3 2 5 4 4 2 4 4 5 7 7 7 8 9 16 20 23 30 29 28 32 36 30 28 27 30 32 29 30 30 28 25 26 25
3 2 1 2 4 4 5 6 4 4 2 5 4 3 9 9 12 7 7 8 8 7 5 7 11 16 25 28 31 28 25 35 34 29 30 29 36 34 38 33 33 30 27 27
2 5 3 1 3 5 4 6 5 5 3 4 1 7 6 8 8 5 6 7 8 9 8 7 10 13 24 32 33 29 27 32 32 33 33 32 34 34 35 34 36 32 31 31
3 4 3 1 2 5 1 3 3 0 1 2 5 7 11 10 6 5 7 6 8 7 9 13 16 17 19 28 34 31 30 34 33 33 34 34 34 35 34 39 41 40 33 28
3 3 3 1 1 3 4 4 1 2 2 5 4 7 10 10 11 5 7 9 11 7 8 10 15 21 21 29 30 34 34 35 34 34 32 32 35 38 41 39 41 37 31 27
4 3 3 1 4 6 1 0 3 3 4 4 4 6 6 5 5 7 7 9 9 10 9 9 13 18 23 31 32 34 38 36 33 32 31 33 34 38 36 37 40 35 30 28
3 4 4 8 3 4 5 7 5 4 4 4 3 13 7 7 5 6 9 11 9 9 11 9 10 18 20 27 33 33 37 35 34 33 31 36 36 35 34 35 32 31 30 28
5 1 3 7 3 3 2 4 4 2 1 7 6 9 2 3 7 11 17 10 10 10 12 9 9 12 17 24 32 34 38 38 37 30 31 33 32 31 33 35 37 32 31 30
7 6 7 7 5 3 5 8 6 6 5 7 15 27 23 18 17 14 11 8 9 10 11 10 10 12 12 24 30 35 40 41 36 29 27 28 31 33 36 37 35 33 34 33
6 8 7 10 12 8 13 16 15 14 19 12 22 20 23 18 13 8 6 7 10 14 14 12 12 12 13 24 34 36 39 44 37 21 23 26 30 32 31 31 31 32 32 32
3 4 5 5 9 11 16 17 18 21 19 18 23 24 21 13 5 6 7 9 12 14 13 10 11 11 17 24 31 38 40 42 36 19 15 17 22 24 23 24 24 27 29 30
4 3 1 7 3 5 10 12 15 11 9 6 6 9 5 6 9 6 6 10 13 14 12 12 15 9 14 27 30 35 41 38 27 11 14 17 19 20 21 23 25 26 29 31
5 5 3 5 4 5 6 3 3 6 9 7 8 10 12 15 9 6 6 10 13 14 13 14 15 11 21 21 32 39 40 27 17 10 8 16 22 18 22 24 24 26 31 32
14 6 4 3 5 7 7 2 1 4 7 4 6 8 9 7 6 14 12 10 10 13 14 14 21 23 25 24 26 31 34 16 12 16 5 14 18 21 24 24 26 29 30 32
7 8 4 3 2 4 6 1 3 3 7 3 4 7 7 7 11 14 10 6 13 15 15 17 23 27 24 29 30 27 25 10 9 11 3 14 19 23 24 26 27 28 34 31
3 3 8 4 4 7 4 4 3 1 6 1 4 14 12 12 10 17 13 14 13 12 19 25 24 24 24 26 28 23 22 9 8 4 13 13 19 22 24 30 33 33 33 30
2 2 3 3 4 6 5 2 5 6 5 11 14 14 16 15 14 15 14 10 15 16 19 24 18 22 25 24 22 21 16 6 6 7 6 12 20 25 26 33 30 32 32 30
2 3 2 3 5 5 4 9 7 6 12 9 12 14 13 12 12 17 18 19 18 18 16 21 17 20 24 24 20 17 20 8 3 4 3 17 19 25 29 28 27 26 30 25
4 1 3 5 4 7 10 9 8 6 14 10 6 9 10 13 14 17 16 15 17 15 15 20 16 13 15 20 22 22 21 12 3 5 11 24 21 23 23 27 28 24 21 20
7 4 4 5 7 10 11 11 18 17 9 6 8 9 11 15 17 16 17 16 15 16 19 21 14 12 18 20 21 27 22 17 12 4 5 22 24 25 24 22 19 24 23 28
2 3 2 5 13 14 17 18 17 15 13 8 8 11 14 14 15 17 17 15 15 16 21 18 18 18 21 17 21 27 22 25 30 7 9 17 22 22 24 23 20 19 20 19
Wind_Direction
13 75 205 244 222 170 76 230 229 260 286 353 288 287 283 263 249 274 277 282 293 288 274 332 345 348 345 342 336 337 335 324 294 262 235 232 232 235 240 239 241 240 238 242
23 225 220 263 169 177 180 218 312 306 319 343 305 293 286 240 225 210 237 274 273 321 323 332 341 337 339 334 330 329 328 317 310 278 251 236 232 231 236 241 242 235 230 234
154 243 325 29 69 159 200 158 215 234 322 297 325 296 265 314 218 226 246 252 317 302 312 316 326 322 327 329 329 320 320 315 310 298 266 244 226 224 222 235 241 236 229 232
226 265 113 355 300 123 339 195 217 263 28 293 57 287 263 233 258 281 289 309 283 294 308 305 320 324 321 317 322 323 319 313 306 300 267 239 230 220 226 233 239 239 228 229
259 192 261 283 178 154 213 38 332 307 273 13 263 264 274 321 345 318 285 279 288 289 286 307 315 319 316 320 319 320 318 309 305 294 271 240 234 236 230 228 236 243 231 226
251 245 165 197 82 80 67 25 20 50 76 2 264 179 270 167 176 256 252 277 293 311 319 317 314 316 313 316 315 314 316 311 305 297 281 248 235 230 229 222 221 225 219 222
338 347 321 108 50 29 73 52 339 345 9 224 207 299 242 264 290 216 253 287 295 301 300 310 315 315 314 311 309 306 305 301 304 294 282 264 239 231 229 225 217 206 206 219
159 319 176 171 171 192 205 152 167 238 224 238 55 247 247 217 239 216 237 268 296 305 315 316 314 302 306 309 305 297 297 298 297 293 280 266 252 232 231 225 214 210 213 223
159 271 287 167 142 124 151 165 189 195 304 325 223 289 302 281 265 256 296 286 283 298 313 322 318 318 315 314 303 294 295 292 290 287 275 259 249 230 225 223 219 220 217 221
179 286 252 271 126 74 154 162 69 14 269 269 259 259 241 286 279 280 293 292 298 303 302 312 319 316 318 327 312 298 297 287 284 282 270 248 240 230 223 221 221 215 214 214
149 154 259 320 202 195 18 64 80 122 150 210 306 261 220 236 248 274 276 282 283 292 291 305 311 310 315 329 320 310 305 293 287 280 261 237 230 226 219 218 220 210 210 207
191 156 244 235 242 262 174 196 159 138 226 216 243 270 272 259 299 313 289 292 288 275 286 296 307 313 319 324 320 315 310 300 293 283 254 232 227 220 211 210 212 210 210 202
182 226 326 333 13 360 155 182 192 182 105 225 259 263 238 315 309 300 305 296 295 293 283 284 299 315 318 321 316 317 310 303 298 288 249 225 215 206 210 211 208 207 206 199
153 180 184 222 232 156 255 243 205 202 244 260 235 275 278 287 289 290 290 282 284 284 285 268 293 309 322 314 315 316 309 309 303 285 232 206 198 200 204 207 202 198 200 195
162 215 208 237 245 250 255 260 260 240 250 246 273 272 281 288 287 274 275 281 294 311 307 307 311 318 313 318 315 317 314 310 309 258 207 197 192 191 193 195 193 192 191 189
178 244 175 256 236 246 258 256 255 254 254 255 262 271 273 280 248 266 283 299 300 298 300 301 306 319 327 315 309 312 308 305 308 236 191 179 169 162 168 169 167 170 171 178
192 187 231 275 226 313 279 250 244 243 232 208 242 259 340 269 280 271 275 283 292 293 289 310 315 327 310 291 303 302 299 296 311 231 161 147 146 150 155 154 157 159 163 167
203 172 195 273 315 247 242 239 233 221 249 245 280 288 301 305 280 262 250 259 272 284 291 308 310 302 300 281 288 293 302 297 313 324 151 148 149 148 152 154 158 158 161 162
216 183 222 224 198 299 301 2 248 174 275 229 259 287 304 318 301 283 247 247 267 291 290 293 297 295 299 285 279 278 288 281 289 338 154 149 151 148 154 158 155 155 151 152
163 183 193 204 209 242 237 229 129 153 290 207 192 259 296 317 300 293 299 280 296 286 289 300 294 296 295 294 299 298 303 309 317 17 155 159 158 156 153 147 146 144 147 151
155 193 215 233 242 278 256 180 154 78 250 223 266 308 300 289 275 287 300 294 283 285 298 296 293 291 289 291 289 289 297 292 311 275 0 151 151 141 143 135 138 139 151 156
300 290 212 213 219 262 165 77 190 228 287 314 303 301 295 297 298 290 291 273 284 290 295 288 285 287 289 288 288 292 304 312 316 167 31 146 136 142 140 136 141 145 146 141
320 231 288 224 241 263 209 236 273 267 286 288 298 310 303 301 295 291 291 291 291 295 290 288 282 283 287 291 290 283 294 309 169 214 85 137 145 144 146 138 136 133 141 137
295 335 254 7 264 276 293 284 261 262 292 298 292 289 286 289 293 292 297 295 299 293 288 287 283 283 288 291 290 286 290 288 174 302 151 134 134 134 143 142 143 139 139 136
269 306 276 263 290 317 294 293 287 293 283 277 278 269 291 295 292 292 299 290 292 290 289 289 285 287 284 288 290 295 294 289 202 113 126 139 145 138 128 127 140 151 157 163
207 239 282 280 306 293 288 290 286 286 286 284 270 289 303 287 300 301 293 293 292 292 293 291 291 282 282 285 282 284 295 275 252 183 133 149 137 132 136 131 118 147 155 165